DC5DM-13 Weather Reports


Display with metric or nautical units.
time (UTC)temp
F
wind
direction
speed
MPH
gust
MPH
rain 1hr
in
rain 24hr
in
rain mn
in
humidity
%
barometer
mb
20260507050547 45 255 0.0 2.0 0.00 0.14 0.01 99 1011.9
20260507045617 45 253 1.0 2.0 0.00 0.14 0.01 99 1011.8
20260507044547 45 255 1.0 2.0 0.00 0.14 0.01 99 1011.7
20260507043617 45 0.0 0.0 0.00 0.14 0.01 99 1011.6
20260507041606 45 225 0.0 2.0 0.00 0.14 0.01 99 1011.4
20260507040536 45 232 0.0 2.0 0.00 0.14 0.01 99 1011.3
20260507035607 45 236 0.0 4.0 0.00 0.14 0.01 99 1011.2
20260507034536 45 0.0 2.0 0.00 0.14 0.01 99 1011.2
20260507033606 45 225 1.0 2.0 0.00 0.14 0.01 99 1011.0
20260507032536 45 229 1.0 2.0 0.00 0.14 0.01 99 1011.2
20260507031606 45 267 1.0 4.0 0.00 0.14 0.01 99 1011.0
20260507030535 45 216 1.0 4.0 0.00 0.14 0.01 99 1011.0
20260507025606 45 225 0.0 2.0 0.00 0.14 0.01 99 1011.0
20260507024536 45 255 0.0 2.0 0.00 0.14 0.01 99 1010.9
20260507023606 45 0.0 2.0 0.00 0.14 0.01 99 1010.9
20260507022536 45 240 1.0 2.0 0.00 0.14 0.01 99 1010.9
20260507021606 45 238 1.0 4.0 0.00 0.14 0.01 99 1010.9
20260507020530 45 259 1.0 2.0 0.00 0.14 0.01 99 1010.8
20260507015602 45 270 0.0 2.0 0.00 0.14 0.01 99 1010.8
20260507014529 45 244 2.0 6.0 0.00 0.14 0.01 99 1010.7
20260507013601 45 270 0.0 2.0 0.00 0.14 0.01 99 1010.7
20260507012528 45 0.0 0.0 0.00 0.14 0.01 99 1010.5
20260507011553 45 225 1.0 4.0 0.00 0.14 0.01 99 1010.5
20260507010617 45 248 0.0 2.0 0.00 0.14 0.01 99 1010.4
20260507005546 45 225 0.0 2.0 0.00 0.14 0.01 99 1010.4
20260507004617 45 267 1.0 2.0 0.00 0.14 0.01 99 1010.3
20260507003540 45 248 1.0 4.0 0.00 0.15 0.01 99 1010.3
20260507002603 45 233 1.0 2.0 0.00 0.15 0.01 99 1010.2
20260507001531 45 249 1.0 4.0 0.00 0.15 0.01 99 1010.1
20260507000603 45 248 1.0 2.0 0.01 0.15 0.01 99 1010.2
20260506235529 45 249 1.0 4.0 0.01 0.17 0.01 99 1010.3
20260506234600 45 236 1.0 4.0 0.01 0.20 0.01 99 1010.1
20260506233525 45 225 0.0 2.0 0.01 0.20 0.01 99 1010.2
20260506232557 45 254 0.0 2.0 0.01 0.20 0.01 99 1010.1
20260506231525 45 248 1.0 4.0 0.01 0.20 0.01 99 1010.1
20260506230550 46 254 1.0 4.0 0.00 0.19 0.00 99 1010.0
20260506225613 46 261 2.0 4.0 0.00 0.20 0.00 99 1010.0
20260506224542 46 263 0.0 2.0 0.00 0.21 0.00 99 1009.9
20260506223614 46 248 2.0 4.0 0.00 0.21 0.00 99 1009.8
20260506222542 46 261 1.0 4.0 0.00 0.21 0.00 99 1009.8
20260506221614 46 293 1.0 4.0 0.00 0.21 0.00 99 1009.7
20260506220547 46 270 1.0 2.0 0.00 0.22 0.00 99 1009.6
20260506215614 46 274 1.0 2.0 0.00 0.22 0.22 99 1009.4
20260506214542 46 288 1.0 4.0 0.00 0.22 0.22 98 1009.4
20260506213614 46 293 0.0 2.0 0.00 0.24 0.22 98 1009.4
20260506212542 46 0.0 0.0 0.00 0.24 0.22 98 1009.3
20260506211614 46 281 0.0 2.0 0.00 0.24 0.22 98 1009.3
20260506210542 46 283 0.0 2.0 0.00 0.25 0.22 98 1009.2
20260506205613 46 248 0.0 4.0 0.00 0.25 0.22 98 1009.2
20260506204542 46 275 1.0 4.0 0.00 0.25 0.22 98 1009.1
20260506203613 46 261 1.0 2.0 0.00 0.26 0.22 98 1009.0
20260506202542 46 256 1.0 2.0 0.00 0.26 0.22 98 1009.0
20260506201614 46 262 1.0 4.0 0.00 0.26 0.22 98 1008.9
20260506200542 46 277 1.0 4.0 0.00 0.28 0.22 97 1008.9
20260506195613 46 264 1.0 4.0 0.00 0.31 0.22 97 1008.8
20260506194543 47 266 1.0 4.0 0.00 0.32 0.22 98 1008.7
20260506193614 47 248 1.0 4.0 0.00 0.32 0.22 98 1008.7
20260506192542 47 258 1.0 2.0 0.00 0.32 0.22 98 1008.5
20260506191613 47 281 1.0 4.0 0.00 0.33 0.22 98 1008.5
20260506190542 47 255 1.0 4.0 0.00 0.35 0.22 98 1008.4
20260506185614 47 279 1.0 4.0 0.00 0.38 0.22 98 1008.2
20260506184542 47 235 1.0 2.0 0.00 0.39 0.22 98 1008.1
20260506183614 47 262 1.0 2.0 0.00 0.39 0.22 98 1008.0
20260506182542 47 248 0.0 4.0 0.00 0.39 0.22 98 1007.8
20260506181613 47 250 1.0 4.0 0.00 0.40 0.22 98 1007.7
20260506180542 48 281 1.0 4.0 0.00 0.40 0.22 98 1007.7
20260506175614 48 284 1.0 2.0 0.00 0.41 0.22 99 1007.5
20260506174542 48 261 1.0 4.0 0.00 0.41 0.22 99 1007.5
20260506173613 48 315 0.0 4.0 0.00 0.43 0.22 99 1007.5
20260506172542 48 293 0.0 2.0 0.00 0.43 0.22 99 1007.3
20260506171614 48 265 1.0 4.0 0.00 0.44 0.22 99 1007.3
20260506170547 48 252 2.0 4.0 0.00 0.45 0.22 99 1007.1
20260506165614 48 235 1.0 4.0 0.00 0.48 0.22 99 1007.1
20260506164542 49 251 2.0 6.0 0.00 0.50 0.22 99 1007.2
20260506163613 49 237 2.0 6.0 0.00 0.52 0.22 98 1007.1
20260506162542 49 238 1.0 4.0 0.00 0.56 0.22 99 1007.1
20260506161613 49 260 1.0 2.0 0.00 0.64 0.22 99 1007.1
20260506160542 50 273 1.0 6.0 0.00 0.66 0.22 99 1007.0
20260506155614 50 262 1.0 4.0 0.00 0.69 0.22 99 1006.9
20260506154542 50 232 1.0 4.0 0.00 0.69 0.22 99 1006.8
20260506153614 51 270 0.0 2.0 0.00 0.69 0.22 99 1006.8
20260506152542 51 271 2.0 4.0 0.00 0.69 0.22 99 1006.5
20260506151613 51 241 2.0 4.0 0.00 0.69 0.22 99 1006.5
20260506150542 51 271 2.0 6.0 0.00 0.69 0.22 99 1006.4
20260506145618 52 269 3.0 8.0 0.00 0.69 0.22 99 1006.4
20260506144542 52 261 1.0 4.0 0.00 0.69 0.22 99 1006.3
20260506143613 52 268 2.0 4.0 0.00 0.69 0.22 99 1006.3
20260506142542 52 0.0 2.0 0.00 0.69 0.22 99 1006.3
20260506141614 52 270 0.0 2.0 0.00 0.69 0.22 99 1006.3
20260506140542 52 263 2.0 4.0 0.00 0.69 0.22 99 1006.2
20260506135619 53 232 1.0 4.0 0.01 0.69 0.22 99 1006.2
20260506134542 52 258 0.0 2.0 0.02 0.69 0.22 99 1006.0
20260506133613 52 270 0.0 2.0 0.05 0.69 0.22 99 1006.1
20260506132542 52 233 0.0 2.0 0.06 0.69 0.22 99 1006.0
20260506131614 53 248 1.0 4.0 0.06 0.69 0.22 99 1005.8
20260506130542 53 240 1.0 4.0 0.06 0.69 0.22 99 1005.8
20260506125614 53 255 1.0 4.0 0.06 0.67 0.21 99 1005.9
20260506124542 53 266 1.0 2.0 0.05 0.66 0.20 99 1005.7
20260506123614 53 293 1.0 2.0 0.04 0.64 0.18 99 1005.7
20260506122542 53 246 1.0 4.0 0.02 0.63 0.17 99 1005.7
20260506121613 53 256 1.0 2.0 0.05 0.63 0.17 99 1005.7
20260506120542 53 263 1.0 2.0 0.05 0.63 0.17 99 1005.7
20260506115613 53 271 1.0 2.0 0.04 0.61 0.15 99 1005.7
20260506114537 54 277 1.0 4.0 0.04 0.61 0.15 99 1005.6
20260506113559 53 248 1.0 2.0 0.04 0.60 0.14 99 1005.5
20260506112528 54 0.0 0.0 0.04 0.60 0.14 98 1005.6
20260506111600 54 238 1.0 4.0 0.01 0.58 0.12 97 1005.4
20260506110528 54 248 0.0 2.0 0.01 0.58 0.12 97 1005.5
20260506105600 54 0.0 0.0 0.01 0.58 0.12 98 1005.5
20260506104624 53 231 1.0 2.0 0.01 0.58 0.12 97 1005.6
20260506103546 54 0.0 0.0 0.00 0.57 0.11 97 1005.6
20260506102617 54 0.0 0.0 0.00 0.57 0.11 97 1005.6
20260506101545 54 231 0.0 2.0 0.00 0.57 0.11 97 1005.4
20260506100617 55 0.0 0.0 0.00 0.57 0.11 98 1005.5
20260506095539 54 203 1.0 4.0 0.00 0.57 0.11 98 1005.4
20260506094605 54 252 1.0 4.0 0.00 0.57 0.11 99 1005.5
20260506093529 53 248 2.0 4.0 0.00 0.57 0.11 99 1005.5
20260506092552 52 240 2.0 4.0 0.00 0.57 0.11 99 1005.4
20260506091619 52 258 1.0 4.0 0.01 0.57 0.11 99 1005.4
20260506090549 53 243 1.0 4.0 0.01 0.57 0.11 99 1005.3
20260506085619 52 254 0.0 2.0 0.01 0.57 0.11 99 1005.3
20260506084550 52 218 0.0 4.0 0.01 0.57 0.11 99 1005.3
20260506083620 52 246 1.0 4.0 0.01 0.57 0.11 99 1005.2
20260506082550 52 248 0.0 2.0 0.01 0.57 0.11 99 1005.1
20260506081620 51 257 1.0 4.0 0.00 0.56 0.09 99 1005.1
20260506080550 51 193 0.0 2.0 0.00 0.56 0.09 99 1005.2
20260506072550 51 249 1.0 2.0 0.00 0.56 0.09 99 1005.0
20260506071620 51 259 1.0 2.0 0.00 0.56 0.09 99 1004.9
20260506070550 51 276 2.0 4.0 0.00 0.56 0.09 99 1004.9
20260506061620 51 250 1.0 4.0 0.00 0.56 0.09 99 1004.8
20260506060549 51 278 1.0 4.0 0.00 0.56 0.09 99 1004.7